Regional Weather Roundup
Issued by NWS

Home | Current Version | Previous Version | Text Only | Print | Product List | Glossary Off
Versions: 1 2 3 4 5 6 7 8 9 10 11 12 13 14 15 16 17 18 19 20 21 22 23 24 25 26 27 28 29 30 31 32 33 34 35 36 37 38 39 40 41 42 43 44 45 46 47 48 49 50

000
ASUS43 KLSX 041110
RWRMO

WEATHER SUMMARY FOR MISSOURI
NATIONAL WEATHER SERVICE SPRINGFIELD MO
600 AM CDT WED MAY 04 2016

NOTE: "FAIR" INDICATES FEW OR NO CLOUDS BELOW 12,000 FEET WITH NO
       SIGNIFICANT WEATHER AND/OR OBSTRUCTIONS TO VISIBILITY.
       CURRENT SKY AND/OR WEATHER CONDITIONS ARE NOT AVAILABLE FOR
       CHILLICOTHE AND FARMINGTON.

MOZ001>031-035>038-043-044-053-054-041200-
...NORTHERN AND WESTERN MISSOURI...

CITY           SKY/WX    TMP DP  RH WIND       PRES   REMARKS
KANSAS CTY INT CLEAR     53  43  68 NW9       29.86R
KANSAS C DTWN  CLEAR     56  43  61 NW6       29.85R
LEE`S SUMMIT   CLEAR     55  43  63 NW10      29.85R
ST JOSEPH      CLEAR     53  40  61 N13       29.87R
CHILLICOTHE      N/A     54  42  64 NW6       29.82R
KIRKSVILLE     CLEAR     53  40  61 NW12      29.77R

$$
MOZ066>068-077>081-088>096-101>105-041200-
...SOUTHWEST MISSOURI...

CITY           SKY/WX    TMP DP  RH WIND       PRES   REMARKS
SPRINGFIELD    CLEAR     55  43  63 W14       29.87F
JOPLIN         CLEAR     52  45  77 SW9       29.92S

$$
MOZ032>034-039>042-045>050-055>058-069>072-041200-
...CENTRAL MISSOURI...

CITY           SKY/WX    TMP DP  RH WIND       PRES   REMARKS
COLUMBIA       MOCLDY    57  45  64 W13       29.76R
JEFFERSON CITY PTCLDY    57  46  66 NW9       29.77S
ROLLA          CLOUDY    48  43  82 S10       29.76F
SEDALIA        CLEAR     56  45  66 W12       29.81R
WHITEMAN AFB   PTCLDY    54  46  73 W10       29.81R
WARRENSBURG    CLEAR     54  43  66 W7        29.83R
OSAGE BEACH    MOCLDY    55  39  54 SW9       29.80F

$$
MOZ051-052-059>065-041200-
...EAST CENTRAL MISSOURI...

CITY           SKY/WX    TMP DP  RH WIND       PRES   REMARKS
ST LOUIS INTL  CLOUDY    57  45  64 W12       29.71F
SPIRIT OF STL  CLOUDY    56  45  66 SW16      29.70F
ST CHARLES     PTCLDY    54  48  80 W10       29.70F

$$
MOZ072>076-082>087-097>100-106>115-041200-
...SOUTH CENTRAL AND SOUTHEAST MISSOURI...

CITY           SKY/WX    TMP DP  RH WIND       PRES   REMARKS
CAPE GIRARDEAU MOCLDY    48  46  93 CALM      29.81F
FARMINGTON     CLOUDY    56  44  64 W12       29.78F
POPLAR BLUFF   PTCLDY    49  45  86 SW6       29.84F
WEST PLAINS    CLEAR     45  39  79 SW3       29.87F

$$



USA.gov is the U.S. government's official web portal to all federal, state and local government web resources and services.